N250DA LGSO-LGMK

Flight info

Callsign N250DA
Flight time 0h 15m
Altitude 3500
Route VARIX
Aircraft DA40/L-SDGRY/S

Departure

Time 2026-05-06 14:40
Airport Syros Airport (LGSO)

Arrival

Time 2026-05-06 14:55
Airport Mykonos Island National Airport (LGMK)
Time Latitude Longitude Altitude Speed Heading
2026-05-06 14:29 37.42236 24.94850 232 ft 0 kts 274°
2026-05-06 14:31 37.42155 24.94850 232 ft 0 kts 269°
2026-05-06 14:37 37.42165 24.94849 232 ft 8 kts 35°
2026-05-06 14:37 37.42251 24.94932 232 ft 15 kts 44°
2026-05-06 14:38 37.42353 24.95009 232 ft 16 kts 355°
2026-05-06 14:38 37.42514 24.95008 230 ft 29 kts 359°
2026-05-06 14:38 37.42717 24.95013 231 ft 17 kts
2026-05-06 14:38 37.42765 24.95004 231 ft 5 kts 191°
2026-05-06 14:39 37.42745 24.95009 231 ft 0 kts 182°
2026-05-06 14:39 37.42745 24.95008 231 ft 0 kts 181°
2026-05-06 14:39 37.42734 24.95008 231 ft 12 kts 182°
2026-05-06 14:39 37.42427 24.94996 294 ft 64 kts 182°
2026-05-06 14:40 37.41999 24.95192 570 ft 71 kts 131°
2026-05-06 14:40 37.41768 24.95738 855 ft 70 kts 126°
2026-05-06 14:40 37.41521 24.96309 1117 ft 80 kts 122°
2026-05-06 14:40 37.41238 24.96986 1353 ft 95 kts 121°
2026-05-06 14:41 37.40903 24.97762 1540 ft 106 kts 122°
2026-05-06 14:41 37.40542 24.98599 1751 ft 111 kts 121°
2026-05-06 14:41 37.40175 24.99458 1970 ft 112 kts 121°
2026-05-06 14:41 37.39800 25.00323 2193 ft 113 kts 121°
2026-05-06 14:42 37.39421 25.01192 2442 ft 113 kts 121°
2026-05-06 14:42 37.38970 25.01985 2678 ft 110 kts 153°
2026-05-06 14:42 37.38273 25.02339 2923 ft 109 kts 156°
2026-05-06 14:42 37.37791 25.03085 3166 ft 115 kts 110°
2026-05-06 14:43 37.37786 25.04071 3412 ft 114 kts 68°
2026-05-06 14:43 37.38273 25.04853 3553 ft 114 kts 28°
2026-05-06 14:43 37.38958 25.05370 3605 ft 119 kts 27°
2026-05-06 14:43 37.39675 25.05935 3611 ft 124 kts 27°
2026-05-06 14:44 37.40422 25.06514 3611 ft 128 kts 27°
2026-05-06 14:44 37.41183 25.07101 3610 ft 129 kts 27°
2026-05-06 14:44 37.41945 25.07688 3611 ft 127 kts 27°
2026-05-06 14:45 37.43443 25.08841 3609 ft 126 kts 26°
2026-05-06 14:45 37.44194 25.09417 3608 ft 126 kts 27°
2026-05-06 14:45 37.44933 25.09988 3608 ft 126 kts 27°
2026-05-06 14:45 37.45685 25.10567 3608 ft 127 kts 27°
2026-05-06 14:46 37.46440 25.11148 3608 ft 127 kts 27°
2026-05-06 14:46 37.47192 25.11727 3608 ft 126 kts 27°
2026-05-06 14:46 37.47941 25.12305 3606 ft 126 kts 28°
2026-05-06 14:46 37.48689 25.12883 3603 ft 126 kts 28°
2026-05-06 14:47 37.49435 25.13458 3602 ft 125 kts 28°
2026-05-06 14:47 37.50180 25.14033 3599 ft 126 kts 28°
2026-05-06 14:47 37.50921 25.14606 3601 ft 125 kts 30°
2026-05-06 14:47 37.51485 25.15446 3591 ft 129 kts 65°
2026-05-06 14:48 37.51738 25.16532 3594 ft 129 kts 72°
2026-05-06 14:48 37.51997 25.17613 3594 ft 129 kts 71°
2026-05-06 14:48 37.52254 25.18694 3595 ft 129 kts 71°
2026-05-06 14:48 37.52512 25.19778 3595 ft 130 kts 71°
2026-05-06 14:49 37.52772 25.20875 3538 ft 132 kts 72°
2026-05-06 14:49 37.53036 25.21995 3308 ft 131 kts 72°
2026-05-06 14:49 37.53204 25.23095 3051 ft 127 kts 93°
2026-05-06 14:49 37.53035 25.24179 2796 ft 125 kts 101°
2026-05-06 14:50 37.52875 25.25253 2542 ft 124 kts 101°
2026-05-06 14:50 37.52714 25.26300 2290 ft 118 kts 105°
2026-05-06 14:50 37.52453 25.27212 2174 ft 101 kts 117°
2026-05-06 14:50 37.52126 25.27945 2082 ft 92 kts 127°
2026-05-06 14:51 37.51765 25.28531 2068 ft 78 kts 136°
2026-05-06 14:51 37.51376 25.29013 2076 ft 85 kts 143°
2026-05-06 14:51 37.50885 25.29480 2086 ft 88 kts 151°
2026-05-06 14:51 37.50382 25.29911 2090 ft 87 kts 150°
2026-05-06 14:52 37.49885 25.30339 2085 ft 87 kts 150°
2026-05-06 14:52 37.49345 25.30802 1891 ft 98 kts 149°
2026-05-06 14:52 37.48780 25.31289 1687 ft 98 kts 150°
2026-05-06 14:52 37.48211 25.31778 1503 ft 98 kts 150°
2026-05-06 14:53 37.47672 25.32247 1332 ft 91 kts 150°
2026-05-06 14:53 37.47167 25.32682 1159 ft 85 kts 150°
2026-05-06 14:53 37.46685 25.33096 996 ft 82 kts 150°
2026-05-06 14:53 37.46228 25.33470 853 ft 74 kts 153°
2026-05-06 14:54 37.45805 25.33740 786 ft 65 kts 163°
2026-05-06 14:54 37.45394 25.33962 721 ft 65 kts 163°
2026-05-06 14:54 37.44975 25.34173 632 ft 65 kts 164°
2026-05-06 14:54 37.44561 25.34355 554 ft 63 kts 163°
2026-05-06 14:55 37.44138 25.34545 438 ft 65 kts 162°
2026-05-06 14:55 37.43714 25.34730 403 ft 65 kts 161°
2026-05-06 14:55 37.43315 25.34909 399 ft 55 kts 160°
2026-05-06 14:55 37.42989 25.35049 402 ft 44 kts 162°
2026-05-06 14:56 37.42793 25.35138 405 ft 13 kts 163°
2026-05-06 14:56 37.42696 25.35117 405 ft 16 kts 164°
2026-05-06 14:56 37.42724 25.35180 405 ft 12 kts 333°
2026-05-06 14:56 37.42846 25.35119 403 ft 25 kts 340°
2026-05-06 14:57 37.43027 25.35038 402 ft 30 kts 340°
2026-05-06 14:57 37.43235 25.34946 398 ft 33 kts 340°
2026-05-06 14:57 37.43383 25.34866 398 ft 22 kts 314°
2026-05-06 14:57 37.43443 25.34734 400 ft 11 kts 324°
2026-05-06 14:58 37.43435 25.34706 401 ft 0 kts 168°